Regional Weather Roundup
Issued by NWS Grand Forks, ND

Home | Current Version | Previous Version | Text Only | Print | Product List | Glossary Off
Versions: 1 2 3 4 5 6 7 8 9 10 11 12 13 14 15 16 17 18 19 20 21 22 23 24 25 26 27 28 29 30 31 32 33 34 35 36 37 38 39 40 41 42 43 44 45 46 47 48 49 50

000
ASUS43 KFGF 142010
RWRFGF
PRAIRIE TO PINES  WEATHER ROUNDUP
NATIONAL WEATHER SERVICE EASTERN NORTH DAKOTA/GRAND FORKS ND
200 PM CST SUN FEB 14 2016

 **SATELLITE DATA USED TO AUGMENT SKY COVER AT AUTOMATED STATIONS**
 *****  WEATHER ACROSS EASTERN NORTH DAKOTA  *****

CITY           SKY/WX    TMP DP  RH WIND       PRES   REMARKS
GRAND FORKS    LGT SNOW  18  13  80 S15       29.74F WCI   4
GRAND FRKS AFB CLOUDY    18  13  82 S10       29.72F WCI   6
DEVILS LAKE    CLOUDY    22  18  85 W10       29.68S WCI  11
FARGO          CLOUDY    18  13  80 S17       29.78F HAZE    WCI   3
WAHPETON ARPT  CLOUDY    19  12  73 S18       29.81S WCI   4
$$

 ***** WEATHER ACROSS CENTRAL AND WESTERN NORTH DAKOTA  *****

CITY           SKY/WX    TMP DP  RH WIND       PRES   REMARKS
BISMARCK       CLOUDY    42  30  62 W14       29.72S
MINOT          CLOUDY    36  26  67 W9        29.69R
JAMESTOWN      CLOUDY    28  23  81 NW9       29.69S WCI  19
MINOT AFB      CLOUDY    35  32  90 NW8G17    29.67F
GARRISON         N/A     35  28  75 NW16      29.69S
WILLISTON      CLOUDY    35  27  72 SW9       29.70F
DICKINSON      CLOUDY    37  29  72 W14       29.69S
HETTINGER      CLOUDY    40  32  73 W18       29.73F
$$

 *****  OTHER AIRPORT OBSERVATIONS IN OUR AREA  *****

CITY           SKY/WX    TMP DP  RH WIND       PRES   REMARKS
WALHALLA         N/A     19  18  93 S9        29.69F WCI   9
GRAFTON AIRPOR NOT AVBL
VALLEY CITY AR NOT AVBL
CANDO          NOT AVBL
CAVALIER APRT  NOT AVBL
GWINNER        CLOUDY    21  19  93 SW17      29.76S WCI   7
SHEYENNE NWR     N/A     18  13  79 S10       29.95S WCI   6
ROLLA          CLOUDY    25  21  86 NW10      29.64F WCI  15
 ***** THE ABOVE OBSERVATIONS ARE NON NWS ARE NOT QUALITY
       CONTROLLED AND MAY MIS-REPORT RAIN FOR SNOW...
$$

  *****  WEATHER ACROSS NORTHERN MINNESOTA  *****

CITY           SKY/WX    TMP DP  RH WIND       PRES   REMARKS
FLAG ISLAND    LGT SNOW  12   9  85 S17G25    29.77F VSB 3/4 WCI  -5
WARROAD        LGT SNOW  14  10  85 S12       29.77F WCI   0
ROSEAU         LGT SNOW  16  10  79 S15       29.76F WCI   1
HALLOCK        LGT SNOW  18  16  93 S18       29.73F VSB 1   WCI   2
THF RVR FALLS  CLOUDY    16  10  79 S17       29.77S WCI   0
BAUDETTE       LGT SNOW  13   6  74 S15       29.78F VSB 1   WCI  -3
WASKISH        LGT SNOW  14   9  79 SE8       29.80F WCI   3
CROOKSTON      LGT SNOW  16  14  93 S18G28    29.78S VSB 1   WCI  -1
STEPHEN NDAWN    N/A     16  14  93 S18         N/A  WCI  -1
GREENBUSH NDAW   N/A     16  12  86 S14         N/A  WCI   1
$$
  *****  WEATHER ACROSS CENTRAL AND WEST MINNESOTA  *****

CITY           SKY/WX    TMP DP  RH WIND       PRES   REMARKS
FOSSTON        LGT SNOW  16   9  73 S18       29.76F WCI  -1
BEMIDJI        LGT SNOW  13   9  82 S12G21    29.78F WCI  -1
PARK RAPIDS    SNOW      15   9  76 S14       29.79F VSB 1/2 WCI   0
ELBOW LAKE     CLOUDY    17  13  86 S18       29.82S FOG     WCI   0
WADENA         LGT SNOW  16  10  79 S13       29.80F WCI   2
DETROIT LAKES  LGT SNOW  18  12  79 S15       29.78F WCI   3
MOORHEAD       CLOUDY    16  12  86 S17       29.79F FOG     WCI   0
FERGUS FALLS   LGT SNOW  16  12  86 S16       29.84S WCI   0
MORRIS MN      CLOUDY    19  14  79 S21       29.81S HAZE    WCI   3
STAPLES        LGT SNOW  16   9  73 S14       29.82F WCI   1
$$
  *****  WEATHER ELSEWHERE ACROSS MINNESOTA  *****

CITY           SKY/WX    TMP DP  RH WIND       PRES   REMARKS
DULUTH         CLOUDY    12   6  77 S9        29.90F HAZE    WCI   0
INTRNTL FALLS  HVY SNOW  12   7  80 VRB5      29.83F VSB 1/4 WCI   4
ELY            FLURRIES  16   7  67 S12       29.88F WCI   3
CLOQUET        LGT SNOW  12   7  79 SE6       29.90F WCI   3
WHEATON        MOSUNNY   19  16  86 S12G17    29.83F WCI   7
BRAINERD       LGT SNOW  15   9  76 SE12      29.85F WCI   2
HIBBING        LGT SNOW  11   5  77 SE12G21   29.86F WCI  -3
ALEXANDRIA     CLOUDY    17  11  77 S14       29.81S HAZE    WCI   3
SAINT CLOUD    LGT SNOW  18  11  74 SE16      29.88F WCI   3
MINNEAPOLIS    FLURRIES  18  11  74 SE13      29.94F WCI   5
$$

  *****  WEATHER ACROSS SOUTH DAKOTA  *****

CITY           SKY/WX    TMP DP  RH WIND       PRES   REMARKS
SIOUX FALLS    CLOUDY    20  15  81 S3        29.80F
BROOKINGS      CLOUDY    20  14  77 S10       29.78S WCI   9
WATERTOWN      CLOUDY    18  13  80 S15       29.75F WCI   4
HURON          CLOUDY    24  19  81 S9        29.78F WCI  14
SISSETON         N/A     19  13  77 S13       29.78F WCI   6
ABERDEEN       CLOUDY    24  19  81 SW9       29.77S WCI  14
MITCHELL       CLOUDY    25  21  85 S6        29.81F WCI  18
PIERRE         CLOUDY    38  30  73 NW10      29.76S
MOBRIDGE       MOSUNNY   38  30  73 W9        29.71F
RAPID CITY     CLOUDY    39  31  72 N14       29.78F
$$

  *****  SOME WEATHER IN NEARBY STATES *****

CITY           SKY/WX    TMP DP  RH WIND       PRES   REMARKS
GLASGOW MT     CLOUDY    43  29  57 W12       29.71S
GREAT FALLS MT SUNNY     50  16  25 NW26G38   29.85S
CHEYENNE WY    CLOUDY    45  21  38 W29G40    29.86F
SCOTTSBLUFF NE SUNNY     53  22  29 NW22G33   29.81F
OMAHA NE       CLOUDY    36  26  67 W13       29.82R
DES MOINES IA  CLOUDY    23  16  74 SE12      29.87F WCI  12
DAVENPORT IA   LGT SNOW  19  14  81 SE18      30.00F VSB 1   WCI   4
CHICAGO IL     SNOW      17  13  84 SE14      30.15F VSB 1/2 WCI   3
EAU CLAIRE WI  LGT SNOW  17   8  67 SE14      30.00F WCI   3
LA CROSSE WI   LGT SNOW  19  11  70 SE14      30.03F WCI   6
$$

  *****  SOME NATIONAL WEATHER *****

CITY           SKY/WX    TMP DP  RH WIND       PRES   REMARKS
LA GUARDIA NY  SUNNY     15 -13  27 NW12G18   30.49F WCI   2
RALEIGH NC     PTSUNNY   29  -4  24 S5        30.45F WCI  24
ATLANTA GA     PTSUNNY   48  15  26 SE8       30.23F
NEW ORLEANS LA PTSUNNY   69  48  47 S20G25    30.09F
OKLAHOMA CITY  CLOUDY    54  36  50 N8        29.90F
ALBUQUERQUE NM CLOUDY    59  15  18 VRB3      30.04F
SALT LAKE CITY CLOUDY    37  34  89 SE9       30.24  FOG
LOS ANGELES CA MOSUNNY   61  53  75 W12       30.04F HAZE
BOISE ID       CLOUDY    46  41  82 N3        30.27S
SEATTLE WA     CLOUDY    51  48  89 S14       30.13S
$$

*** WEATHER ACROSS MANITOBA...SASKATCHEWAN AND ONTARIO ***
                ***ONTARIO***

CITY           SKY/WX    TMP DP  RH WIND       PRES   REMARKS
GERALDTON      PTSUNNY   19   7  58 S16G22    29.99F WCI   5
THUNDER BAY    PTSUNNY   21   5  49 S12G18    30.03F WCI   9
SIOUX LOOKOUT  FLURRIES  18   3  53 S9G21     29.80F WCI   6
TORONTO        MOSUNNY   10  -2  56 E5        30.44S WCI   2
BIG TROUT LK   FLURRIES  14   3  62 S13       29.69F WCI   0
PICKLE LAKE    MOSUNNY   16  -8  35 S18G25    29.79F WCI  -1
DRYDEN         CLOUDY    14   5  67 S14       29.78F WCI  -1
KENORA         FLURRIES  12   7  79 S12       29.75F WCI  -2
$$
                *** MANITOBA***

CITY           SKY/WX    TMP DP  RH WIND       PRES   REMARKS
BRANDON        CLOUDY    23  19  86 W13       29.65S WCI  11
DAUPHIN        CLOUDY    25  21  86 W16G24    29.61F WCI  12
ISLAND LAKE    LGT SNOW  10   7  85 S10G17    29.60F VSB 3/4 WCI  -3
PILOT MOUND      N/A     19  16  86 NW7         N/A  WCI  10
THE PAS        CLOUDY    25  21  86 W10       29.51F WCI  15
THOMPSON       FRZ DRZL  10   7  85 SW9       29.44F WCI  -2
WINNIPEG       FLURRIES  16  10  79 S17       29.71F WCI   0
LYNN LAKE      LGT SNOW  18  14  86 W10G21    29.38S WCI   6
CHURCHILL      LGT SNOW   7   1  78 SW9       29.45F WCI  -7
GILLAM         LGT SNOW  10   5  79 SW9G21    29.47F DRFTSNOWWCI  -2
$$
                ***SASKATCHEWAN***

CITY           SKY/WX    TMP DP  RH WIND       PRES   REMARKS
ESTEVAN        PTSUNNY   34  28  80 SW8       29.67F
KINDERSLEY     PTSUNNY   28  23  80 W9        29.69R WCI  20
LLOYDMINSTER   PTSUNNY   36  27  69 W13       29.65S
PRINCE ALBERT  MOSUNNY   36  25  64 W15G21    29.57F
REGINA         PTSUNNY   36  28  75 W10       29.65S
YORKTON        SUNNY     30  25  80 SW8       29.60S WCI  23
N. BATTLEFORD  PTSUNNY   32  25  74 W7        29.66F
LA RONGE       PTSUNNY   28  23  80 W13G23    29.52S WCI  18
SASKATOON      MOSUNNY   32  27  80 SW9       29.66S WCI  24
SWIFT CURRENT  SUNNY     34  27  75 W10       29.66S
$$
NOTE: THESE ARE AUTOMATED STATIONS WITH LIMITED QUALITY CONTROL
      "FAIR" INDICATES FEW OR NO CLOUDS BELOW 12,000 FEET WITH NO
      SIGNIFICANT WEATHER AND/OR OBSTRUCTIONS TO VISIBILITY.
      SKY/WX - SKY CONDITION AND SIGNIFICANT WEATHER.
      TMP - AIR TEMPERATURE.    DP   - DEWPOINT TEMPERATURE.
      RH  - RELATIVE HUMIDITY.  PRES - PRESSURE.
      HX  - HEAT INDEX.         WCI  - WIND CHILL INDEX.
$



USA.gov is the U.S. government's official web portal to all federal, state and local government web resources and services.